DELTA 1 DEB, 10707

Orbit data source: Space-Track

DELTA 1 DEB, 10707 is space debris in LEO originally from a launch on Thu, 29 Jul 1976 UTC launched from the Air Force Western Test Range (AFWTR). Debris objects in space refer to the collection of defunct objects orbiting the Earth. Examples of debris include non-operational satellites, rocket bodies, and fragments generated from explosions, collisions, or faulty payload assembly.

Loading next visibility...
Identifier
10707, 1976-077AC
Orbit
LEO
Country
Flag of USUS
Related business
Manufacturer
Unknown
Mission
Spacecraft
Bus & Motor
Unknown
Mass
Unknown
Launch date (UTC)
1976-07-29 (49 years ago)
Launch vehicle
Unknown
Launch site
Air Force Western Test Range (AFWTR)
Object type
Payload
Rocket body
Debris
Shape & HBR
Unknown shape, 0.1 m
Radar Cross Section
Small (<0.1 m²)

Expand to show TLE details & history
Last TLE update: 1 day ago

TLE from 1 day ago
0 DELTA 1 DEB
1 10707U 76077AC  25341.59225749  .00000714  00000-0  86106-2 0  9995
2 10707 102.2051   1.0141 0267638 269.4187 215.8742 11.98373491129405
Epoch: 2025-12-07T14:12Z
TLE epoch observation values (Epoch: 2025-12-07T14:12:51.047Z)
Latitude
54.64029°
Longitude
-91.14041°
Altitude
1,873.804 km
Speed
6.879 km/s
True Right ascension
13h 14m 42s
True Declination
54° 29' 59"
Sunlit
Object was in daylight at epoch
Visualization orbit readout
Latitude
Unknown
Longitude
Unknown
Altitude
Unknown
Speed
Unknown
Apparent Right ascension
Unknown
Apparent Declination
Unknown
Sunlit
N/A
Visualization observer readout
Local Sidereal Time
22:09:17
Azimuth
Unknown
Elevation
Unknown
Doppler factor
Unknown
Orbital elements
Apogee altitude
1,901.611 km
Perigee altitude
1,469.968 km
Semi-major axis
8,063.927 km
Eccentricity
0.02676
Inclination
102.2051°
RAAN
1.0141°
Arg. of periapsis
269.4187°
True anomaly
214.12472°
Mean anomaly
215.8742°
Eccentric anomaly
214.99476°
Mean motion
2.99725 °/min
Orbital period
120.11 mins
BSTAR
0.0086106
Loading maneuver chart data...
Computing Atmospheric mass density...
Loading historical data...
Loading historical data...
Loading historical data...
Loading historical data...
Loading historical data...
Loading historical data...
Loading historical data...

Documentation

Showing up to 5 results
|